Flag for Mozambique Weather past 2 weeks in Maputo, Mozambique

Now
75 °F

Clear.


Feels Like: 77 °F
Forecast: 63 / 81 °F
Wind: 18 mph from East

Location: Maputo / Mavalane

Current Time: Sep 23, 2014 at 5:34:31 PM

Latest Report: Sep 23, 2014 at 5:00 PM


Visibility: 10 mi

Pressure: 30.15 "Hg

Humidity: 61%

Dew point: 61 °F

Location of MaputoLocation

Historic Weather in Maputo — Graph

°F

Maputo temperature yesterday

Maximum temperature yesterday: 81 °F (at 12:00 PM)
Minimum temperature yesterday: 64 °F (at 2:00 AM)
Average temperature yesterday: 71 °F

Past Weeks' High & Low Weather Summary

 TemperatureHumidityPressure
High99 °F (Sep 12, 1:00 PM)94% (Sep 16, 12:00 AM)30.36 "Hg (Sep 16, 12:00 AM)
Low61 °F (Sep 23, 5:00 AM)13% (Sep 15, 2:00 PM)29.71 "Hg (Sep 18, 3:00 PM)
Average75 °F64%30.09 "Hg
* Reported Sep 8 5:00 PM — Sep 23 4:00 PM, Maputo, Weather by CustomWeather, © 2014

Note: Actual official high and low records may vary slightly from our data, if they occured in-between our weather recording intervals... More about our weather records

Advertising

Maputo weather history for previous 24 hours

 ConditionsComfort  
Time TempWeatherWind HumidityBarometerVisibility
4:00 PM
Sep 23
77 °FSunny.20 mph54%30.12 "Hg10 mi
3:00 PM79 °FSunny.18 mph48%30.12 "Hg10 mi
2:00 PM81 °FSunny.17 mph45%30.15 "Hg10 mi
1:00 PM81 °FSunny.17 mph42%30.15 "Hg10 mi
12:00 PM82 °FPassing clouds.10 mph37%30.18 "HgN/A
11:00 AM81 °FPassing clouds.10 mph39%30.24 "HgN/A
10:00 AM77 °FPassing clouds.13 mph47%30.24 "HgN/A
8:00 AM70 °FScattered clouds.6 mph64%30.27 "HgN/A
7:00 AM66 °FPassing clouds.3 mph73%30.27 "HgN/A
6:00 AM61 °FPassing clouds.3 mph83%30.24 "HgN/A
5:00 AM61 °FPartly sunny.3 mph83%30.21 "HgN/A
2:00 AM63 °FFog.5 mph83%30.24 "Hg4 mi
1:00 AM64 °FClear.3 mph78%30.24 "Hg10 mi
12:00 AM66 °FClear.3 mph64%30.24 "Hg10 mi
11:00 PM
Sep 22
68 °FClear.8 mph73%30.21 "Hg10 mi
10:00 PM68 °FClear.6 mph73%30.24 "Hg10 mi
9:00 PM70 °FClear.14 mph69%30.21 "Hg10 mi
8:00 PM70 °FClear.15 mph73%30.21 "Hg10 mi
7:00 PM70 °FClear.16 mph73%30.21 "Hg10 mi
5:00 PM73 °FClear.18 mph65%30.18 "Hg10 mi
Weather by CustomWeather, © 2014

See weather overviewHow to use our weather pages